Deelen, Netherlands

9:55 AM CEST on May 27, 2017 (GMT +0200)
Deelen Air Base

Weather History for EHDL - February, 2014

Change the Weather History Date:

Saturday, February 15, 2014

  Actual Average Record
Temperature  
Mean Temperature 46 °F -  
Max Temperature 52 °F 45 °F 57 °F (2017)
Min Temperature 41 °F 34 °F 19 °F (2009)
Degree Days  
Heating Degree Days 18    
Moisture  
Dew Point 38 °F    
Average Humidity 63    
Maximum Humidity 93    
Minimum Humidity 41    
Precipitation  
Precipitation 0.00 in - - ()
Sea Level Pressure  
Sea Level Pressure 29.32 in    
Wind  
Wind Speed 20 mph ()    
Max Wind Speed 29 mph    
Max Gust Speed 41 mph    
Visibility 9.0 miles    
Events Rain    
Averages and records for this station are not official NWS values.
T = Trace of Precipitation, MM = Missing Value Source: Averaged Metar Reports

Daily Weather History Graph

Daily Weather History Graph

Search for Another Location

Airport or City:

Trip Planner

Search our weather history database for the weather conditions in past years. The results will help you decide how hot, cold, wet, or windy it might be!

Date:

Astronomy

Feb. 15, 2014 Rise Set
Actual Time 7:51 AM CET 5:50 PM CET
Civil Twilight 7:16 AM CET 6:25 PM CET
Nautical Twilight 6:37 AM CET 7:04 PM CET
Astronomical Twilight 5:58 AM CET 7:43 PM CET
Moon 6:46 PM CET (2/15) 7:33 AM CET (2/15)
Length of Visible Light 11h 08m
Length of Day
9h 58m
Full, 100% of the Moon is Illuminated
Feb 15
Full
Feb 22
Last Quarter
Mar 1
New
Mar 8
First Quarter
Mar 16
Full

Hourly Weather History & Observations

Time (CET) Temp. Windchill Dew Point Humidity Pressure Visibility Wind Dir Wind Speed Gust Speed Precip Events Conditions
12:00 AM 45 °F - 42 °F 83% 29.23 in 19 mi SSE 20.1 mph - -   Partly Cloudy
12:25 AM 44.6 °F 36.6 °F 42.8 °F 93% 29.21 in 6.2 mi SSE 19.6 mph - N/A   Overcast
12:55 AM 46.4 °F 39.0 °F 42.8 °F 87% 29.18 in 6.2 mi SSE 19.6 mph - N/A   Overcast
1:00 AM 46 °F - 42 °F 83% 29.19 in 22 mi SSE 17.9 mph - -   Partly Cloudy
1:25 AM 48.2 °F - 42.8 °F 82% 29.18 in 6.2 mi South 16.1 mph - N/A   Overcast
1:55 AM 48.2 °F - 42.8 °F 82% 29.18 in 6.2 mi SSE 15.0 mph - N/A   Mostly Cloudy
2:00 AM 48 °F - 44 °F 80% 29.18 in 28 mi SSE 13.4 mph - -   Mostly Cloudy
2:25 AM 48.2 °F - 42.8 °F 82% 29.18 in 6.2 mi SSE 12.7 mph - N/A   Mostly Cloudy
2:55 AM 48.2 °F - 44.6 °F 87% 29.18 in 6.2 mi South 11.5 mph - N/A   Overcast
3:00 AM 49 °F - 44 °F 79% 29.20 in 28 mi South 11.2 mph - -   Overcast
3:25 AM 53.6 °F - 44.6 °F 72% 29.18 in 6.2 mi SSW 20.7 mph 36.8 mph N/A   Mostly Cloudy
3:55 AM 53.6 °F - 41.0 °F 62% 29.21 in 6.2 mi SW 26.5 mph 39.1 mph N/A   Mostly Cloudy
4:00 AM 53 °F - 40 °F 50% 29.21 in 25 mi SSW 26.8 mph - -   Scattered Clouds
4:25 AM 53.6 °F - 39.2 °F 58% 29.21 in 6.2 mi SSW 23.0 mph 34.5 mph N/A   Mostly Cloudy
4:55 AM 51.8 °F - 39.2 °F 62% 29.18 in 6.2 mi SSW 24.2 mph 40.3 mph N/A   Scattered Clouds
5:00 AM 52 °F - 39 °F 51% 29.21 in 25 mi SSW 22.4 mph - -   Mostly Cloudy
5:25 AM 51.8 °F - 39.2 °F 62% 29.21 in 6.2 mi SSW 23.0 mph - N/A   Mostly Cloudy
5:55 AM 51.8 °F - 39.2 °F 62% 29.21 in 6.2 mi SSW 24.2 mph - N/A   Mostly Cloudy
6:00 AM 51 °F - 39 °F 54% 29.23 in 18 mi SSW 22.4 mph - -   Scattered Clouds
6:25 AM 51.8 °F - 39.2 °F 62% 29.24 in 6.2 mi SSW 24.2 mph 35.7 mph N/A   Overcast
6:55 AM 51.8 °F - 39.2 °F 62% 29.24 in 6.2 mi SSW 23.0 mph - N/A   Overcast
7:00 AM 51 °F - 40 °F 55% 29.25 in 15 mi SSW 20.1 mph - -   Partly Cloudy
7:25 AM 51.8 °F - 39.2 °F 62% 29.24 in 6.2 mi SSW 24.2 mph - N/A   Mostly Cloudy
7:55 AM 50.0 °F - 39.2 °F 66% 29.24 in 6.2 mi SSW 23.0 mph - N/A   Overcast
8:00 AM 51 °F - 39 °F 53% 29.26 in 15 mi SSW 20.1 mph - -   Scattered Clouds
8:25 AM 50.0 °F - 39.2 °F 66% 29.24 in 6.2 mi SSW 21.9 mph 33.4 mph N/A   Mostly Cloudy
8:55 AM 50.0 °F - 39.2 °F 66% 29.27 in 6.2 mi SSW 24.2 mph 36.8 mph N/A   Mostly Cloudy
9:00 AM 51 °F - 38 °F 51% 29.29 in 18 mi SSW 24.6 mph - -   Scattered Clouds
9:25 AM 51.8 °F - 37.4 °F 58% 29.27 in 6.2 mi SSW 26.5 mph 38.0 mph N/A   Mostly Cloudy
9:55 AM 50.0 °F - 37.4 °F 62% 29.30 in 6.2 mi SW 25.3 mph 38.0 mph N/A   Mostly Cloudy
10:00 AM 51 °F - 38 °F 50% 29.31 in 17 mi SSW 26.8 mph - -   Partly Cloudy
10:25 AM 50.0 °F - 37.4 °F 62% 29.30 in 6.2 mi SW 25.3 mph 38.0 mph N/A   Mostly Cloudy
10:55 AM 51.8 °F - 37.4 °F 58% 29.33 in 6.2 mi SSW 27.6 mph 39.1 mph N/A   Overcast
11:00 AM 51 °F - 38 °F 50% 29.33 in 16 mi SW 29.1 mph - -   Overcast
11:25 AM 51.8 °F - 37.4 °F 58% 29.33 in 6.2 mi SSW 26.5 mph 39.1 mph N/A   Mostly Cloudy
11:55 AM 51.8 °F - 37.4 °F 58% 29.33 in 6.2 mi SSW 26.5 mph 41.4 mph N/A   Mostly Cloudy
12:00 PM 51 °F - 38 °F 50% 29.35 in 15 mi SW 24.6 mph - -   Scattered Clouds
12:25 PM 51.8 °F - 37.4 °F 58% 29.33 in 6.2 mi SW 25.3 mph 39.1 mph N/A   Mostly Cloudy
12:55 PM 51.8 °F - 37.4 °F 58% 29.36 in 6.2 mi SW 24.2 mph - N/A   Mostly Cloudy
1:00 PM 51 °F - 37 °F 47% 29.36 in 16 mi SW 26.8 mph - -   Partly Cloudy
1:25 PM 51.8 °F - 37.4 °F 58% 29.36 in 6.2 mi SW 25.3 mph 38.0 mph N/A   Mostly Cloudy
1:55 PM 51.8 °F - 35.6 °F 54% 29.36 in 6.2 mi SW 27.6 mph 41.4 mph N/A   Mostly Cloudy
2:00 PM 51 °F - 36 °F 45% 29.37 in 18 mi SW 29.1 mph - -   Scattered Clouds
2:25 PM 51.8 °F - 35.6 °F 54% 29.36 in 6.2 mi SW 26.5 mph 38.0 mph N/A   Mostly Cloudy
2:55 PM 51.8 °F - 35.6 °F 54% 29.36 in 6.2 mi SW 26.5 mph 39.1 mph N/A   Mostly Cloudy
3:00 PM 51 °F - 36 °F 44% 29.37 in 16 mi SW 24.6 mph - -   Scattered Clouds
3:25 PM 51.8 °F - 35.6 °F 54% 29.36 in 6.2 mi SW 26.5 mph 40.3 mph N/A   Scattered Clouds
3:55 PM 50.0 °F - 33.8 °F 54% 29.36 in 6.2 mi SSW 26.5 mph 40.3 mph N/A   Mostly Cloudy
4:00 PM 51 °F - 35 °F 41% 29.37 in 19 mi SSW 24.6 mph - -   Mostly Cloudy
4:25 PM 50.0 °F - 35.6 °F 58% 29.36 in 6.2 mi SSW 21.9 mph - N/A   Mostly Cloudy
4:55 PM 50.0 °F - 35.6 °F 58% 29.36 in 6.2 mi SSW 25.3 mph 36.8 mph N/A   Mostly Cloudy
5:00 PM 50 °F - 35 °F 46% 29.38 in 19 mi SSW 22.4 mph - -   Scattered Clouds
5:25 PM 50.0 °F - 35.6 °F 58% 29.39 in 6.2 mi SSW 23.0 mph - N/A   Mostly Cloudy
5:55 PM 50.0 °F - 35.6 °F 58% 29.39 in 6.2 mi SSW 23.0 mph - N/A   Mostly Cloudy
6:00 PM 50 °F - 36 °F 46% 29.40 in 19 mi SSW 22.4 mph - -   Scattered Clouds
6:25 PM 50.0 °F - 35.6 °F 58% 29.39 in 6.2 mi SSW 20.7 mph 36.8 mph N/A   Overcast
6:55 PM 50.0 °F - 35.6 °F 58% 29.39 in 6.2 mi SSW 20.7 mph - N/A   Mostly Cloudy
7:00 PM 49 °F - 36 °F 49% 29.41 in 19 mi SSW 22.4 mph - -   Partly Cloudy
7:25 PM 46.4 °F 37.9 °F 37.4 °F 71% 29.42 in 6.2 mi SW 25.3 mph - N/A Rain Light Rain
7:55 PM 46.4 °F 39.2 °F 37.4 °F 71% 29.44 in 6.2 mi SW 18.4 mph - N/A   Overcast
8:00 PM 46 °F - 38 °F 65% 29.45 in 13 mi SW 22.4 mph - - Rain Light Rain Showers
8:25 PM 44.6 °F 36.6 °F 37.4 °F 76% 29.44 in 6.2 mi SSW 19.6 mph - N/A   Mostly Cloudy
8:55 PM 44.6 °F 36.4 °F 37.4 °F 76% 29.44 in 6.2 mi SW 20.7 mph - N/A   Partly Cloudy
9:00 PM 44 °F - 38 °F 71% 29.46 in 28 mi SSW 20.1 mph - - Rain Rain
9:25 PM 44.6 °F 37.2 °F 39.2 °F 81% 29.44 in 6.2 mi SSW 17.3 mph - N/A   Overcast
9:55 PM 46.4 °F 38.5 °F 37.4 °F 71% 29.44 in 6.2 mi SW 21.9 mph 34.5 mph N/A   Overcast
10:00 PM 46 °F - 38 °F 65% 29.47 in 14 mi SW 24.6 mph - - Rain Light Drizzle
10:25 PM 44.6 °F 35.7 °F 39.2 °F 81% 29.47 in 6.2 mi SW 24.2 mph 35.7 mph N/A Rain Light Rain
10:55 PM 44.6 °F 36.6 °F 39.2 °F 81% 29.47 in 6.2 mi SW 19.6 mph - N/A   Overcast
11:00 PM 45 °F - 38 °F 70% 29.49 in 22 mi SW 20.1 mph - - Rain Rain
11:25 PM 44.6 °F 36.6 °F 39.2 °F 81% 29.47 in 6.2 mi SW 19.6 mph - N/A   Mostly Cloudy
11:55 PM 44.6 °F 36.4 °F 39.2 °F 81% 29.50 in 6.2 mi SW 20.7 mph - N/A   Overcast